Location: 433rd Scouts Home(Lloyd Manor Park, Etobicoke )
(43.6722°N, 79.5542°W)
Time: 22:25:33
(UTC-04:00)

Nauka - Visible Passes

Search period start: 26 September 2021 00:00
Search period end: 06 October 2021 00:00
Orbit: 417 x 423 km, 51.6° (Epoch: 26 September)

Date Brightness Start Highest point End Pass type
(mag) Time Alt. Az. Time Alt. Az. Time Alt. Az.
26 Sep ? 19:39:45 10° WNW 19:42:25 21° N 19:45:05 10° NE visible
26 Sep ? 21:17:06 10° NW 21:19:11 23° N 21:19:11 23° N visible
27 Sep ? 20:29:51 10° NW 20:32:36 23° N 20:33:42 19° NE visible
27 Sep ? 22:06:32 10° NW 22:06:40 11° NW 22:06:40 11° NW visible
28 Sep ? 19:42:35 10° NW 19:45:14 21° N 19:47:52 10° NE visible
28 Sep ? 21:19:25 10° NW 21:21:16 27° NNW 21:21:16 27° NNW visible
29 Sep ? 20:32:21 10° NW 20:35:27 32° NNE 20:35:57 30° NE visible
30 Sep ? 19:45:19 10° NW 19:48:14 26° NNE 19:50:43 12° ENE visible
30 Sep ? 21:21:59 10° WNW 21:23:42 27° WNW 21:23:42 27° WNW visible
01 Oct ? 20:35:01 10° NW 20:38:22 64° NNE 20:38:35 62° NE visible
02 Oct ? 19:48:06 10° NW 19:51:21 44° NNE 19:53:35 18° E visible
02 Oct ? 21:25:08 10° WNW 21:26:35 20° W 21:26:35 20° W visible
03 Oct ? 20:38:03 10° WNW 20:41:19 48° SW 20:41:44 44° SSW visible
04 Oct ? 19:51:10 10° WNW 19:54:31 79° SW 19:57:02 17° SE visible
04 Oct ? 21:30:04 10° WSW 21:30:04 10° WSW 21:30:04 10° WSW visible
05 Oct ? 20:41:58 10° W 20:44:17 17° SW 20:45:34 14° SSW visible
